,,,PA_Meas_PMT16A,,PR_Meas_QMR101_102,,RH_Meas_QMH101,,SR_Meas_QMS101,,TA_Meas_QMH101,,GenWind,,GenWind,
date,time,status,PA,status,PR,status,RH,status,SR,status,TA,status,DirAvg,status,SpdAvg,
2010-10-07, 00:00:04,VALID,999.008,VALID,0,VALID,84.5286,VALID,0,VALID,23.428,VALID,120,VALID,0.630078,
2010-10-07, 00:01:04,VALID,998.96,VALID,0,VALID,84.2386,VALID,0,VALID,23.4458,VALID,132,VALID,0.835547,
2010-10-07, 00:02:04,VALID,998.974,VALID,0,VALID,84.2539,VALID,0,VALID,23.4458,VALID,132,VALID,0.810547,
2010-10-07, 00:03:04,VALID,999.012,VALID,0,VALID,84.376,VALID,0,VALID,23.4475,VALID,132,VALID,0.765625,
2010-10-07, 00:04:04,VALID,998.995,VALID,0,VALID,84.5133,VALID,0,VALID,23.4067,VALID,132,VALID,0.594531,
2010-10-07, 00:05:04,VALID,999.001,VALID,0,VALID,84.7193,VALID,0,VALID,23.4085,VALID,132,VALID,0.54375,
2010-10-07, 00:06:04,VALID,998.996,VALID,0,VALID,84.7956,VALID,0,VALID,23.389,VALID,132,VALID,0.471484,
2010-10-07, 00:07:04,VALID,998.978,VALID,0,VALID,85.2686,VALID,0,VALID,23.3482,VALID,128,VALID,0.624609,
2010-10-07, 00:08:04,VALID,998.969,VALID,0,VALID,85.6196,VALID,0,VALID,23.3695,VALID,111,VALID,0.698828,
2010-10-07, 00:09:04,VALID,998.93,VALID,0,VALID,85.9553,VALID,0,VALID,23.3695,VALID,111,VALID,0.648828,
2010-10-07, 00:10:04,VALID,998.941,VALID,0,VALID,85.7722,VALID,0,VALID,23.3695,VALID,111,VALID,0.689844,
2010-10-07, 00:11:04,VALID,998.968,VALID,0,VALID,85.734,VALID,0,VALID,23.3482,VALID,111,VALID,0.733984,
2010-10-07, 00:12:04,VALID,998.909,VALID,0,VALID,85.879,VALID,0,VALID,23.3695,VALID,111,VALID,0.575391,
2010-10-07, 00:13:04,VALID,998.909,VALID,0,VALID,85.8485,VALID,0,VALID,23.35,VALID,111,VALID,0.644531,
2010-10-07, 00:14:04,VALID,998.885,VALID,0,VALID,85.7264,VALID,0,VALID,23.3305,VALID,121,VALID,0.533203,
2010-10-07, 00:15:04,VALID,998.868,VALID,0,VALID,85.5891,VALID,0,VALID,23.3305,VALID,125,VALID,0.552344,
2010-10-07, 00:16:04,VALID,998.845,VALID,0,VALID,85.1694,VALID,0,VALID,23.35,VALID,165,VALID,0.805078,
2010-10-07, 00:17:04,VALID,998.862,VALID,0,VALID,84.9024,VALID,0,VALID,23.35,VALID,129,VALID,0.8125,
2010-10-07, 00:18:04,VALID,998.891,VALID,0,VALID,84.4217,VALID,0,VALID,23.3677,VALID,154,VALID,0.971484,
2010-10-07, 00:19:04,VALID,998.883,VALID,0,VALID,84.3149,VALID,0,VALID,23.428,VALID,140,VALID,0.760938,
2010-10-07, 00:20:04,VALID,998.931,VALID,0,VALID,83.9869,VALID,0,VALID,23.4671,VALID,140,VALID,0.747656,
2010-10-07, 00:21:04,VALID,998.895,VALID,0,VALID,83.8724,VALID,0,VALID,23.4866,VALID,140,VALID,0.761328,
2010-10-07, 00:22:04,VALID,998.923,VALID,0,VALID,83.7198,VALID,0,VALID,23.4848,VALID,140,VALID,0.611328,
2010-10-07, 00:23:04,VALID,998.91,VALID,0,VALID,83.7046,VALID,0,VALID,23.5061,VALID,140,VALID,0.566406,
2010-10-07, 00:24:04,VALID,998.88,VALID,0,VALID,83.7732,VALID,0.112286,VALID,23.4848,VALID,140,VALID,0.683984,
2010-10-07, 00:25:04,VALID,998.879,VALID,0,VALID,83.8037,VALID,0,VALID,23.4653,VALID,140,VALID,0.448047,
2010-10-07, 00:26:04,VALID,998.924,VALID,0,VALID,83.7885,VALID,0,VALID,23.4653,VALID,140,VALID,0.402344,
2010-10-07, 00:27:04,VALID,998.905,VALID,0,VALID,83.6893,VALID,0.112286,VALID,23.4866,VALID,140,VALID,0.368359,
2010-10-07, 00:28:04,VALID,998.892,VALID,0,VALID,83.6664,VALID,0.112286,VALID,23.4653,VALID,140,VALID,0.549609,
2010-10-07, 00:29:04,VALID,998.884,VALID,0,VALID,83.6359,VALID,0.112286,VALID,23.4653,VALID,140,VALID,0.531641,
2010-10-07, 00:30:04,VALID,998.859,VALID,0,VALID,83.407,VALID,0.112286,VALID,23.4653,VALID,140,VALID,0.299219,
2010-10-07, 00:31:04,VALID,998.862,VALID,0,VALID,84.2157,VALID,0,VALID,23.4866,VALID,140,VALID,0.254297,
2010-10-07, 00:32:04,VALID,998.844,VALID,0,VALID,84.3226,VALID,0,VALID,23.4067,VALID,140,VALID,0.411719,
2010-10-07, 00:33:04,VALID,998.852,VALID,0,VALID,84.4904,VALID,0.112286,VALID,23.3287,VALID,140,VALID,0.387891,
2010-10-07, 00:34:04,VALID,998.826,VALID,0,VALID,84.5896,VALID,0,VALID,23.2702,VALID,140,VALID,0.273438,
2010-10-07, 00:35:04,VALID,998.827,VALID,0,VALID,84.6125,VALID,0,VALID,23.2702,VALID,140,VALID,0,
2010-10-07, 00:36:04,VALID,998.798,VALID,0,VALID,84.6659,VALID,0,VALID,23.311,VALID,140,VALID,0,
2010-10-07, 00:37:04,VALID,998.795,VALID,0,VALID,84.5133,VALID,0,VALID,23.3305,VALID,140,VALID,0.369531,
2010-10-07, 00:38:04,VALID,998.782,VALID,0,VALID,84.0021,VALID,0,VALID,23.3305,VALID,169,VALID,0.742188,
2010-10-07, 00:39:04,VALID,998.734,VALID,0,VALID,83.7046,VALID,0,VALID,23.4085,VALID,157,VALID,0.9125,
2010-10-07, 00:40:04,VALID,998.734,VALID,0,VALID,83.3994,VALID,0,VALID,23.4475,VALID,159,VALID,0.730078,
2010-10-07, 00:41:04,VALID,998.676,VALID,0,VALID,82.9721,VALID,0,VALID,23.4866,VALID,146,VALID,1.06133,
2010-10-07, 00:42:04,VALID,998.652,VALID,0,VALID,82.85,VALID,0,VALID,23.5256,VALID,136,VALID,1.0832,
2010-10-07, 00:43:04,VALID,998.62,VALID,0,VALID,82.5525,VALID,0,VALID,23.5451,VALID,136,VALID,1.04414,
2010-10-07, 00:44:04,VALID,998.582,VALID,0,VALID,82.6669,VALID,0,VALID,23.5646,VALID,136,VALID,0.750391,
2010-10-07, 00:45:04,VALID,998.513,VALID,0,VALID,82.8577,VALID,0,VALID,23.5451,VALID,136,VALID,0.638672,
2010-10-07, 00:46:04,VALID,998.536,VALID,0,VALID,83.1552,VALID,0,VALID,23.5256,VALID,136,VALID,0.726172,
2010-10-07, 00:47:04,VALID,998.487,VALID,0,VALID,83.3841,VALID,0,VALID,23.5274,VALID,136,VALID,0.761328,
2010-10-07, 00:48:04,VALID,998.51,VALID,0,VALID,83.0026,VALID,0,VALID,23.4866,VALID,136,VALID,0.938672,
2010-10-07, 00:49:04,VALID,998.497,VALID,0,VALID,82.728,VALID,0,VALID,23.5256,VALID,140,VALID,1.05938,
2010-10-07, 00:50:04,VALID,998.452,VALID,0,VALID,82.583,VALID,0,VALID,23.5451,VALID,142,VALID,1.12109,
2010-10-07, 00:51:04,VALID,998.43,VALID,0,VALID,82.6212,VALID,0,VALID,23.5238,VALID,145,VALID,1.05742,
2010-10-07, 00:52:04,VALID,998.399,VALID,0,VALID,82.728,VALID,0,VALID,23.5256,VALID,145,VALID,0.966406,
2010-10-07, 00:53:04,VALID,998.379,VALID,0,VALID,82.9874,VALID,0,VALID,23.4848,VALID,145,VALID,0.910937,
2010-10-07, 00:54:04,VALID,998.395,VALID,0,VALID,83.1018,VALID,0.112286,VALID,23.444,VALID,142,VALID,0.85625,
2010-10-07, 00:55:04,VALID,998.379,VALID,0,VALID,83.2239,VALID,0.112286,VALID,23.4458,VALID,149,VALID,1.12695,
2010-10-07, 00:56:04,VALID,998.381,VALID,0,VALID,83.4299,VALID,0,VALID,23.4067,VALID,137,VALID,1.01914,
2010-10-07, 00:57:04,VALID,998.398,VALID,0,VALID,83.6893,VALID,0,VALID,23.3482,VALID,130,VALID,0.766406,
2010-10-07, 00:58:04,VALID,998.355,VALID,0,VALID,84.0098,VALID,0,VALID,23.2897,VALID,129,VALID,0.495703,
2010-10-07, 00:59:04,VALID,998.322,VALID,0,VALID,84.4675,VALID,0,VALID,23.2312,VALID,75,VALID,0.655859,
2010-10-07, 01:00:04,VALID,998.313,VALID,0,VALID,85.4136,VALID,0.112286,VALID,23.1726,VALID,37,VALID,0.789453,
2010-10-07, 01:01:04,VALID,998.284,VALID,0,VALID,86.2986,VALID,0.112286,VALID,23.0733,VALID,24,VALID,0.967188,
2010-10-07, 01:02:04,VALID,998.276,VALID,0,VALID,86.6877,VALID,0,VALID,23.0166,VALID,20,VALID,1.01914,
2010-10-07, 01:03:04,VALID,998.248,VALID,0,VALID,86.7793,VALID,0,VALID,22.9581,VALID,21,VALID,1.11992,
2010-10-07, 01:04:04,VALID,998.286,VALID,0,VALID,86.5657,VALID,0.112286,VALID,22.9385,VALID,19,VALID,0.972656,
2010-10-07, 01:05:04,VALID,998.248,VALID,0,VALID,86.1537,VALID,0.112286,VALID,22.919,VALID,20,VALID,0.968359,
2010-10-07, 01:06:04,VALID,998.22,VALID,0,VALID,86.1766,VALID,0,VALID,22.919,VALID,20,VALID,0.497266,
2010-10-07, 01:07:04,VALID,998.233,VALID,0,VALID,86.5428,VALID,0,VALID,22.9208,VALID,20,VALID,0.567187,
2010-10-07, 01:08:04,VALID,998.225,VALID,0,VALID,86.3826,VALID,0,VALID,22.9208,VALID,20,VALID,0.510156,
2010-10-07, 01:09:04,VALID,998.209,VALID,0,VALID,86.5504,VALID,0,VALID,22.88,VALID,17,VALID,0.622656,
2010-10-07, 01:10:04,VALID,998.18,VALID,0,VALID,86.4436,VALID,0,VALID,22.88,VALID,16,VALID,0.169922,
2010-10-07, 01:11:04,VALID,998.166,VALID,0,VALID,86.8098,VALID,0,VALID,22.88,VALID,16,VALID,0.361328,
2010-10-07, 01:12:04,VALID,998.174,VALID,0,VALID,87.1455,VALID,0,VALID,22.8215,VALID,16,VALID,0.521094,
2010-10-07, 01:13:04,VALID,998.143,VALID,0,VALID,87.4965,VALID,0,VALID,22.802,VALID,349,VALID,0.679297,
2010-10-07, 01:14:04,VALID,998.115,VALID,0,VALID,87.7406,VALID,0,VALID,22.7825,VALID,349,VALID,0.753125,
2010-10-07, 01:15:04,VALID,998.091,VALID,0,VALID,87.8627,VALID,0,VALID,22.7435,VALID,349,VALID,0.609375,
2010-10-07, 01:16:04,VALID,998.077,VALID,0,VALID,87.8703,VALID,0,VALID,22.7045,VALID,348,VALID,0.585938,
2010-10-07, 01:17:04,VALID,998.103,VALID,0,VALID,87.8627,VALID,0,VALID,22.6832,VALID,348,VALID,0.196875,
2010-10-07, 01:18:04,VALID,998.123,VALID,0,VALID,87.8398,VALID,0.112286,VALID,22.7045,VALID,348,VALID,0,
2010-10-07, 01:19:04,VALID,998.137,VALID,0,VALID,87.6567,VALID,0,VALID,22.685,VALID,348,VALID,0.0207031,
2010-10-07, 01:20:04,VALID,998.117,VALID,0,VALID,87.5346,VALID,0,VALID,22.6672,VALID,348,VALID,0.00664063,
2010-10-07, 01:21:04,VALID,998.138,VALID,0,VALID,87.466,VALID,0,VALID,22.6867,VALID,348,VALID,0,
2010-10-07, 01:22:04,VALID,998.139,VALID,0,VALID,87.3897,VALID,0,VALID,22.6867,VALID,348,VALID,0,
2010-10-07, 01:23:04,VALID,998.163,VALID,0,VALID,87.939,VALID,0,VALID,22.6672,VALID,348,VALID,0.00898437,
2010-10-07, 01:24:04,VALID,998.152,VALID,0,VALID,88.1603,VALID,0,VALID,22.6477,VALID,348,VALID,0.276953,
2010-10-07, 01:25:04,VALID,998.138,VALID,0,VALID,88.2213,VALID,0,VALID,22.6282,VALID,348,VALID,0.121484,
2010-10-07, 01:26:04,VALID,998.151,VALID,0,VALID,88.5341,VALID,0,VALID,22.6087,VALID,348,VALID,0.434375,
2010-10-07, 01:27:04,VALID,998.161,VALID,0,VALID,88.5646,VALID,0,VALID,22.6087,VALID,348,VALID,0.445313,
2010-10-07, 01:28:04,VALID,998.15,VALID,0,VALID,88.4807,VALID,0,VALID,22.6087,VALID,348,VALID,0.469922,
2010-10-07, 01:29:04,VALID,998.183,VALID,0,VALID,88.6409,VALID,0,VALID,22.6087,VALID,348,VALID,0.709766,
2010-10-07, 01:30:04,VALID,998.196,VALID,0,VALID,88.908,VALID,0,VALID,22.5892,VALID,348,VALID,0.698438,
2010-10-07, 01:31:04,VALID,998.182,VALID,0,VALID,89.114,VALID,0,VALID,22.5501,VALID,348,VALID,0.576563,
2010-10-07, 01:32:04,VALID,998.175,VALID,0,VALID,89.3963,VALID,0,VALID,22.5306,VALID,348,VALID,0.554297,
2010-10-07, 01:33:04,VALID,998.18,VALID,0,VALID,89.8388,VALID,0,VALID,22.5111,VALID,348,VALID,0.528906,
2010-10-07, 01:34:04,VALID,998.176,VALID,0,VALID,90.1668,VALID,0,VALID,22.4916,VALID,348,VALID,0.703906,
2010-10-07, 01:35:04,VALID,998.167,VALID,0,VALID,90.0753,VALID,0,VALID,22.4526,VALID,16,VALID,0.801953,
2010-10-07, 01:36:04,VALID,998.144,VALID,0,VALID,90.0219,VALID,0,VALID,22.4526,VALID,16,VALID,0.73125,
2010-10-07, 01:37:04,VALID,998.157,VALID,0,VALID,90.1134,VALID,0,VALID,22.4136,VALID,31,VALID,0.778516,
2010-10-07, 01:38:04,VALID,998.115,VALID,0,VALID,90.0829,VALID,0.112286,VALID,22.4526,VALID,43,VALID,0.861328,
2010-10-07, 01:39:04,VALID,998.102,VALID,0,VALID,90.0906,VALID,0.112286,VALID,22.4314,VALID,43,VALID,0.687891,
2010-10-07, 01:40:04,VALID,998.119,VALID,0,VALID,90.0829,VALID,0,VALID,22.4314,VALID,47,VALID,0.574609,
2010-10-07, 01:41:04,VALID,998.114,VALID,0,VALID,90.1668,VALID,0.112286,VALID,22.4314,VALID,47,VALID,0.485938,
2010-10-07, 01:42:04,VALID,998.089,VALID,0,VALID,90.2737,VALID,0.112286,VALID,22.4119,VALID,47,VALID,0.1875,
2010-10-07, 01:43:04,VALID,998.099,VALID,0,VALID,90.2203,VALID,0.112286,VALID,22.3729,VALID,47,VALID,0,
2010-10-07, 01:44:04,VALID,998.084,VALID,0,VALID,90.3118,VALID,0,VALID,22.3534,VALID,47,VALID,0,
2010-10-07, 01:45:04,VALID,998.061,VALID,0,VALID,90.5407,VALID,0,VALID,22.3534,VALID,47,VALID,0,
2010-10-07, 01:46:04,VALID,998.067,VALID,0,VALID,90.762,VALID,0,VALID,22.3534,VALID,47,VALID,0,
2010-10-07, 01:47:04,VALID,998.063,VALID,0,VALID,90.9298,VALID,0,VALID,22.3339,VALID,47,VALID,0.132813,
2010-10-07, 01:48:04,VALID,998.032,VALID,0,VALID,91.1282,VALID,0.112286,VALID,22.3534,VALID,47,VALID,0.315234,
2010-10-07, 01:49:04,VALID,998.045,VALID,0,VALID,91.2121,VALID,0.112286,VALID,22.3534,VALID,61,VALID,0.630469,
2010-10-07, 01:50:04,VALID,998.068,VALID,0,VALID,91.174,VALID,0,VALID,22.3339,VALID,86,VALID,0.819531,
2010-10-07, 01:51:04,VALID,998.057,VALID,0,VALID,91.0519,VALID,0,VALID,22.3534,VALID,89,VALID,0.816797,
2010-10-07, 01:52:04,VALID,998.038,VALID,0,VALID,90.8764,VALID,0.112286,VALID,22.3534,VALID,89,VALID,0.796094,
2010-10-07, 01:53:04,VALID,997.978,VALID,0,VALID,90.617,VALID,0,VALID,22.3729,VALID,89,VALID,0.792578,
2010-10-07, 01:54:04,VALID,998,VALID,0,VALID,90.4186,VALID,0,VALID,22.3729,VALID,89,VALID,0.630078,
2010-10-07, 01:55:04,VALID,997.992,VALID,0,VALID,90.3118,VALID,0.112286,VALID,22.3729,VALID,89,VALID,0.620313,
2010-10-07, 01:56:04,VALID,997.958,VALID,0,VALID,90.2584,VALID,0.112286,VALID,22.3534,VALID,88,VALID,0.680469,
2010-10-07, 01:57:04,VALID,997.945,VALID,0,VALID,90.2508,VALID,0,VALID,22.3534,VALID,88,VALID,0.651953,
2010-10-07, 01:58:04,VALID,997.933,VALID,0,VALID,90.3271,VALID,0,VALID,22.3144,VALID,88,VALID,0.625,
2010-10-07, 01:59:04,VALID,997.938,VALID,0,VALID,90.472,VALID,0.112286,VALID,22.2949,VALID,88,VALID,0.671875,
2010-10-07, 02:00:04,VALID,997.953,VALID,0,VALID,90.678,VALID,0,VALID,22.2754,VALID,103,VALID,0.958594,
2010-10-07, 02:01:04,VALID,997.928,VALID,0,VALID,90.9527,VALID,0,VALID,22.2754,VALID,110,VALID,1.04219,
2010-10-07, 02:02:04,VALID,997.897,VALID,0,VALID,91.1816,VALID,0,VALID,22.2754,VALID,111,VALID,1.02656,
2010-10-07, 02:03:04,VALID,997.863,VALID,0,VALID,91.1663,VALID,0.112286,VALID,22.2559,VALID,121,VALID,1.04375,
2010-10-07, 02:04:04,VALID,997.847,VALID,0,VALID,91.1358,VALID,0,VALID,22.2559,VALID,121,VALID,1.07734,
2010-10-07, 02:05:04,VALID,997.854,VALID,0,VALID,91.2197,VALID,0,VALID,22.2559,VALID,110,VALID,1.06328,
2010-10-07, 02:06:04,VALID,997.845,VALID,0,VALID,91.3113,VALID,0.112286,VALID,22.2559,VALID,110,VALID,1.03906,
2010-10-07, 02:07:04,VALID,997.831,VALID,0,VALID,91.3647,VALID,0.112286,VALID,22.2754,VALID,110,VALID,0.950391,
2010-10-07, 02:08:04,VALID,997.828,VALID,0,VALID,91.3342,VALID,0.112286,VALID,22.2754,VALID,112,VALID,1.05195,
2010-10-07, 02:09:04,VALID,997.81,VALID,0,VALID,91.3418,VALID,0.112286,VALID,22.2754,VALID,125,VALID,1.0293,
2010-10-07, 02:10:04,VALID,997.797,VALID,0,VALID,91.4181,VALID,0,VALID,22.2754,VALID,129,VALID,1.32187,
2010-10-07, 02:11:04,VALID,997.804,VALID,0,VALID,91.5478,VALID,0.112286,VALID,22.2754,VALID,131,VALID,1.27422,
2010-10-07, 02:12:04,VALID,997.786,VALID,0,VALID,91.647,VALID,0.112286,VALID,22.2949,VALID,133,VALID,1.18555,
2010-10-07, 02:13:04,VALID,997.83,VALID,0,VALID,91.7462,VALID,0.112286,VALID,22.3144,VALID,129,VALID,1.08867,
2010-10-07, 02:14:04,VALID,997.795,VALID,0,VALID,91.8225,VALID,0.112286,VALID,22.3339,VALID,129,VALID,0.894531,
2010-10-07, 02:15:04,VALID,997.809,VALID,0,VALID,91.8301,VALID,0.112286,VALID,22.3339,VALID,129,VALID,0.536328,
2010-10-07, 02:16:04,VALID,997.8,VALID,0,VALID,91.792,VALID,0.112286,VALID,22.3534,VALID,129,VALID,0.344922,
2010-10-07, 02:17:04,VALID,997.804,VALID,0,VALID,91.7767,VALID,0.112286,VALID,22.3746,VALID,129,VALID,0.394922,
2010-10-07, 02:18:04,VALID,997.848,VALID,0,VALID,91.7309,VALID,0,VALID,22.3729,VALID,139,VALID,0.498047,
2010-10-07, 02:19:04,VALID,997.83,VALID,0,VALID,91.5783,VALID,0,VALID,22.4331,VALID,143,VALID,0.559766,
2010-10-07, 02:20:04,VALID,997.839,VALID,0,VALID,91.1434,VALID,0.112286,VALID,22.4509,VALID,143,VALID,0.453125,
2010-10-07, 02:21:04,VALID,997.82,VALID,0,VALID,90.5254,VALID,0.112286,VALID,22.4704,VALID,143,VALID,0.294922,
2010-10-07, 02:22:04,VALID,997.832,VALID,0,VALID,89.9609,VALID,0.112286,VALID,22.5094,VALID,143,VALID,0.565234,
2010-10-07, 02:23:04,VALID,997.838,VALID,0,VALID,89.5107,VALID,0.112286,VALID,22.5892,VALID,143,VALID,0.365625,
2010-10-07, 02:24:04,VALID,997.828,VALID,0,VALID,89.0987,VALID,0.112286,VALID,22.6264,VALID,143,VALID,0.389062,
2010-10-07, 02:25:04,VALID,997.856,VALID,0,VALID,88.6333,VALID,0,VALID,22.685,VALID,143,VALID,0.174219,
2010-10-07, 02:26:04,VALID,997.831,VALID,0,VALID,88.2823,VALID,0,VALID,22.7045,VALID,143,VALID,0.371484,
2010-10-07, 02:27:04,VALID,997.862,VALID,0,VALID,88.1374,VALID,0,VALID,22.724,VALID,143,VALID,0.388672,
2010-10-07, 02:28:04,VALID,997.851,VALID,0,VALID,87.9848,VALID,0,VALID,22.7452,VALID,140,VALID,0.287891,
2010-10-07, 02:29:04,VALID,997.824,VALID,0,VALID,87.7177,VALID,0.112286,VALID,22.7825,VALID,140,VALID,0.409375,
2010-10-07, 02:30:04,VALID,997.807,VALID,0,VALID,87.588,VALID,0.112286,VALID,22.802,VALID,140,VALID,0.641406,
2010-10-07, 02:31:04,VALID,997.785,VALID,0,VALID,87.5117,VALID,0,VALID,22.8215,VALID,140,VALID,0.486719,
2010-10-07, 02:32:04,VALID,997.801,VALID,0,VALID,87.4278,VALID,0.112286,VALID,22.802,VALID,73,VALID,0.504297,
2010-10-07, 02:33:04,VALID,997.733,VALID,0,VALID,87.4889,VALID,0,VALID,22.7825,VALID,73,VALID,0.341406,
2010-10-07, 02:34:04,VALID,997.752,VALID,0,VALID,87.7559,VALID,0.112286,VALID,22.7647,VALID,73,VALID,0.303906,
2010-10-07, 02:35:04,VALID,997.781,VALID,0,VALID,88.0229,VALID,0,VALID,22.7045,VALID,73,VALID,0.267578,
2010-10-07, 02:36:04,VALID,997.772,VALID,0,VALID,88.2671,VALID,0.112286,VALID,22.646,VALID,116,VALID,0.552344,
2010-10-07, 02:37:04,VALID,997.792,VALID,0,VALID,88.5341,VALID,0.112286,VALID,22.646,VALID,116,VALID,0.570313,
2010-10-07, 02:38:04,VALID,997.812,VALID,0,VALID,88.6257,VALID,0,VALID,22.6477,VALID,116,VALID,0.540234,
2010-10-07, 02:39:04,VALID,997.799,VALID,0,VALID,88.6943,VALID,0,VALID,22.6689,VALID,116,VALID,0.494531,
2010-10-07, 02:40:04,VALID,997.805,VALID,0,VALID,88.618,VALID,0,VALID,22.6477,VALID,116,VALID,0.384766,
2010-10-07, 02:41:04,VALID,997.792,VALID,0,VALID,88.496,VALID,0,VALID,22.6672,VALID,116,VALID,0.274609,
2010-10-07, 02:42:04,VALID,997.794,VALID,0,VALID,88.3892,VALID,0,VALID,22.6672,VALID,116,VALID,0.291016,
2010-10-07, 02:43:04,VALID,997.815,VALID,0,VALID,88.2366,VALID,0,VALID,22.6867,VALID,116,VALID,0.345313,
2010-10-07, 02:44:04,VALID,997.827,VALID,0,VALID,88.1755,VALID,0,VALID,22.6867,VALID,116,VALID,0.424219,
2010-10-07, 02:45:04,VALID,997.839,VALID,0,VALID,88.0306,VALID,0,VALID,22.7062,VALID,116,VALID,0.44375,
2010-10-07, 02:46:04,VALID,997.826,VALID,0,VALID,87.7177,VALID,0,VALID,22.7257,VALID,116,VALID,0.528516,
2010-10-07, 02:47:04,VALID,997.832,VALID,0,VALID,87.4278,VALID,0,VALID,22.7647,VALID,116,VALID,0.549609,
2010-10-07, 02:48:04,VALID,997.864,VALID,0,VALID,87.176,VALID,0,VALID,22.7842,VALID,116,VALID,0.523047,
2010-10-07, 02:49:04,VALID,997.845,VALID,0,VALID,87.0921,VALID,0,VALID,22.8232,VALID,116,VALID,0.621094,
2010-10-07, 02:50:04,VALID,997.861,VALID,0,VALID,87.1455,VALID,0,VALID,22.864,VALID,116,VALID,0.604297,
2010-10-07, 02:51:04,VALID,997.815,VALID,0,VALID,87.0234,VALID,0,VALID,22.8623,VALID,116,VALID,0.351953,
2010-10-07, 02:52:04,VALID,997.811,VALID,0,VALID,87.0006,VALID,0,VALID,22.8818,VALID,116,VALID,0.289844,
2010-10-07, 02:53:04,VALID,997.799,VALID,0,VALID,86.9014,VALID,0,VALID,22.8623,VALID,116,VALID,0.194531,
2010-10-07, 02:54:04,VALID,997.796,VALID,0,VALID,86.9853,VALID,0,VALID,22.8427,VALID,116,VALID,0.243359,
2010-10-07, 02:55:04,VALID,997.788,VALID,0,VALID,87.0387,VALID,0,VALID,22.8232,VALID,116,VALID,0.218359,
2010-10-07, 02:56:04,VALID,997.799,VALID,0,VALID,87.26,VALID,0,VALID,22.7842,VALID,116,VALID,0.272656,
2010-10-07, 02:57:04,VALID,997.772,VALID,0,VALID,87.3744,VALID,0,VALID,22.7842,VALID,116,VALID,0.338672,
2010-10-07, 02:58:04,VALID,997.735,VALID,0,VALID,87.4049,VALID,0,VALID,22.7842,VALID,116,VALID,0.311719,
2010-10-07, 02:59:04,VALID,997.741,VALID,0,VALID,87.3515,VALID,0,VALID,22.7825,VALID,116,VALID,0.206641,
2010-10-07, 03:00:04,VALID,997.748,VALID,0,VALID,87.4126,VALID,0,VALID,22.8037,VALID,116,VALID,0.301953,
2010-10-07, 03:01:04,VALID,997.738,VALID,0,VALID,87.3897,VALID,0,VALID,22.8037,VALID,116,VALID,0.320703,
2010-10-07, 03:02:04,VALID,997.777,VALID,0,VALID,87.3668,VALID,0,VALID,22.8037,VALID,116,VALID,0.290234,
2010-10-07, 03:03:04,VALID,997.775,VALID,0,VALID,87.3973,VALID,0,VALID,22.8037,VALID,116,VALID,0.300781,
2010-10-07, 03:04:04,VALID,997.804,VALID,0,VALID,87.5041,VALID,0,VALID,22.8037,VALID,116,VALID,0.304688,
2010-10-07, 03:05:04,VALID,997.835,VALID,0,VALID,87.5117,VALID,0,VALID,22.825,VALID,116,VALID,0.430078,
2010-10-07, 03:06:04,VALID,997.841,VALID,0,VALID,87.466,VALID,0,VALID,22.8037,VALID,116,VALID,0.559375,
2010-10-07, 03:07:04,VALID,997.859,VALID,0,VALID,87.5651,VALID,0,VALID,22.8037,VALID,116,VALID,0.671094,
2010-10-07, 03:08:04,VALID,997.875,VALID,0,VALID,87.5575,VALID,0,VALID,22.8445,VALID,116,VALID,0.769922,
2010-10-07, 03:09:04,VALID,997.865,VALID,0,VALID,87.4889,VALID,0,VALID,22.8232,VALID,116,VALID,0.719531,
2010-10-07, 03:10:04,VALID,997.904,VALID,0,VALID,87.6109,VALID,0,VALID,22.8232,VALID,116,VALID,0.726172,
2010-10-07, 03:11:04,VALID,997.895,VALID,0,VALID,87.6414,VALID,0,VALID,22.8232,VALID,116,VALID,0.512891,
2010-10-07, 03:12:04,VALID,997.898,VALID,0,VALID,87.5804,VALID,0,VALID,22.7842,VALID,116,VALID,0.411719,
2010-10-07, 03:13:04,VALID,997.906,VALID,0,VALID,87.4583,VALID,0,VALID,22.7257,VALID,116,VALID,0.278516,
2010-10-07, 03:14:04,VALID,997.96,VALID,0,VALID,87.8551,VALID,0,VALID,22.6282,VALID,116,VALID,0.242578,
2010-10-07, 03:15:04,VALID,997.974,VALID,0,VALID,88.5189,VALID,0,VALID,22.5501,VALID,116,VALID,0.4,
2010-10-07, 03:16:04,VALID,997.964,VALID,0,VALID,89.175,VALID,0,VALID,22.5306,VALID,116,VALID,0.54375,
2010-10-07, 03:17:04,VALID,997.97,VALID,0,VALID,89.5565,VALID,0,VALID,22.5111,VALID,116,VALID,0.551953,
2010-10-07, 03:18:04,VALID,997.993,VALID,0,VALID,89.5946,VALID,0,VALID,22.5306,VALID,116,VALID,0.409766,
2010-10-07, 03:19:04,VALID,997.962,VALID,0,VALID,89.5107,VALID,0,VALID,22.5501,VALID,116,VALID,0.497266,
2010-10-07, 03:20:04,VALID,997.985,VALID,0,VALID,89.2666,VALID,0,VALID,22.5306,VALID,116,VALID,0.580078,
2010-10-07, 03:21:04,VALID,997.965,VALID,0,VALID,89.3963,VALID,0,VALID,22.4916,VALID,116,VALID,0.604297,
2010-10-07, 03:22:04,VALID,997.98,VALID,0,VALID,89.587,VALID,0,VALID,22.4721,VALID,98,VALID,0.717578,
2010-10-07, 03:23:04,VALID,997.968,VALID,0,VALID,89.732,VALID,0,VALID,22.4916,VALID,97,VALID,0.800781,
2010-10-07, 03:24:04,VALID,997.94,VALID,0,VALID,89.8159,VALID,0.112286,VALID,22.4916,VALID,97,VALID,0.778125,
2010-10-07, 03:25:04,VALID,997.951,VALID,0,VALID,89.854,VALID,0,VALID,22.4704,VALID,97,VALID,0.770703,
2010-10-07, 03:26:04,VALID,997.944,VALID,0,VALID,89.8769,VALID,0,VALID,22.5111,VALID,97,VALID,0.797656,
2010-10-07, 03:27:04,VALID,997.883,VALID,0,VALID,89.7243,VALID,0,VALID,22.5111,VALID,72,VALID,0.948047,
2010-10-07, 03:28:04,VALID,997.906,VALID,0,VALID,89.938,VALID,0.112286,VALID,22.4916,VALID,58,VALID,0.969141,
2010-10-07, 03:29:04,VALID,997.871,VALID,0,VALID,90.0219,VALID,0,VALID,22.4509,VALID,49,VALID,1.03047,
2010-10-07, 03:30:04,VALID,997.894,VALID,0,VALID,89.9532,VALID,0.112286,VALID,22.4119,VALID,49,VALID,1.16094,
2010-10-07, 03:31:04,VALID,997.853,VALID,0,VALID,90.0295,VALID,0,VALID,22.3551,VALID,49,VALID,1.14609,
2010-10-07, 03:32:04,VALID,997.858,VALID,0,VALID,90.2813,VALID,0,VALID,22.2949,VALID,49,VALID,1.09297,
2010-10-07, 03:33:04,VALID,997.806,VALID,0,VALID,90.5331,VALID,0.112286,VALID,22.2364,VALID,44,VALID,1.31836,
2010-10-07, 03:34:04,VALID,997.829,VALID,0,VALID,90.7238,VALID,0,VALID,22.1779,VALID,44,VALID,1.14531,
2010-10-07, 03:35:04,VALID,997.792,VALID,0,VALID,90.9451,VALID,0.112286,VALID,22.1389,VALID,36,VALID,1.02227,
2010-10-07, 03:36:04,VALID,997.764,VALID,0,VALID,91.2121,VALID,0,VALID,22.1194,VALID,29,VALID,0.816406,
2010-10-07, 03:37:04,VALID,997.768,VALID,0,VALID,91.3647,VALID,0,VALID,22.0803,VALID,29,VALID,0.556641,
2010-10-07, 03:38:04,VALID,997.765,VALID,0,VALID,91.4563,VALID,0,VALID,22.0642,VALID,29,VALID,0.498828,
2010-10-07, 03:39:04,VALID,997.746,VALID,0,VALID,91.5326,VALID,0,VALID,22.0235,VALID,29,VALID,0.178906,
2010-10-07, 03:40:04,VALID,997.768,VALID,0,VALID,91.6241,VALID,0,VALID,22.004,VALID,29,VALID,0,
2010-10-07, 03:41:04,VALID,997.769,VALID,0,VALID,91.647,VALID,0,VALID,21.9845,VALID,29,VALID,0,
2010-10-07, 03:42:04,VALID,997.777,VALID,0,VALID,91.7233,VALID,0,VALID,21.965,VALID,29,VALID,0,